This demonstration page uses our WeatherBlox Daily Observations layout. Learn more.

Left ArrowRight Arrow

36.17497, -115.13722

Hourly Observations for July 31, 2017

Temp ( °F °C ) Dew Point ( °F °C ) Humidity (%) Winds ( mph kmh ) Pressure ( in mb ) Visibility ( mi km ) Precip ( " mm )
12:53 am 00:53 Clear 90 32.2 45 7.2 21 21 N 6 9 29.91 1013 10 16 N/A
1:53 am 01:53 Clear 89 31.7 44 6.7 21 21 WNW 8 13 29.91 1013 10 16 N/A
2:53 am 02:53 Clear 88 31.1 44 6.7 22 22 N N/A 29.91 1013 10 16 N/A
3:53 am 03:53 Clear 85 29.4 46 7.8 26 26 SSW 3 6 29.91 1013 10 16 N/A
4:53 am 04:53 Clear 85 29.4 45 7.2 25 25 N N/A 29.92 1013 10 16 N/A
5:53 am 05:53 Sunny 84 28.9 45 7.2 25 25 WNW 3 6 29.94 1014 10 16 N/A
6:53 am 06:53 Sunny 84 28.9 47 8.3 27 27 W 5 7 29.95 1014 10 16 N/A
7:53 am 07:53 Sunny 89 31.7 48 8.9 24 24 NNE 3 6 29.96 1015 10 16 N/A
8:53 am 08:53 Sunny 92 33.3 51 10.6 25 25 E 5 7 29.96 1015 10 16 N/A
9:53 am 09:53 Sunny 92 33.3 50 10 24 24 SSE 8 13 29.97 1015 10 16 N/A
10:53 am 10:53 Sunny 94 34.4 50 10 22 22 SSE 8 13 29.96 1015 10 16 N/A
11:53 am 11:53 Sunny 98 36.7 48 8.9 18 18 N N/A 29.95 1014 10 16 N/A
12:53 pm 12:53 Sunny 101 38.3 46 7.8 15 15 undefined N/A 29.92 1013 10 16 N/A
1:53 pm 13:53 Sunny 103 39.4 42 5.6 12 12 undefined N/A 29.90 1013 10 16 N/A
2:53 pm 14:53 Sunny 105 40.6 43 6.1 12 12 S 8 13 29.87 1011 10 16 N/A
3:53 pm 15:53 Sunny 106 41.1 42 5.6 11 11 SSW 8 13 29.84 1011 10 16 N/A
4:53 pm 16:53 Sunny 106 41.1 43 6.1 12 12 SSE 12 19 29.83 1010 10 16 N/A
5:53 pm 17:53 Sunny 105 40.6 43 6.1 12 12 S 10 17 29.82 1010 10 16 N/A
6:53 pm 18:53 Sunny 104 40 43 6.1 12 12 S 8 13 29.82 1010 10 16 N/A
7:53 pm 19:53 Clear 103 39.4 43 6.1 13 13 SW 6 9 29.82 1010 10 16 N/A
8:53 pm 20:53 Clear 99 37.2 44 6.7 15 15 ESE 5 7 29.84 1010 10 16 N/A
9:53 pm 21:53 Clear 99 37.2 48 8.9 18 18 SSW 5 7 29.85 1011 10 16 N/A
10:53 pm 22:53 Clear 97 36.1 48 8.9 19 19 N N/A 29.86 1011 10 16 N/A
11:53 pm 23:53 Clear 94 34.4 49 9.4 21 21 NW 5 7 29.86 1011 10 16 N/A

Powered by AerisWeather